Goodland, KS

8:30 PM MDT on September 29, 2016 (GMT -0600)
Renner-Goodland Municipal

Weather History for KGLD - March, 2014

Change the Weather History Date:

Sunday, March 2, 2014

  Actual Average Record
Temperature  
Mean Temperature 4 °F 36 °F  
Max Temperature 9 °F 50 °F 76 °F (1974)
Min Temperature -1 °F 23 °F -15 °F (1960)
Degree Days  
Heating Degree Days 61 28  
Month to date heating degree days 115 57  
Since 1 July heating degree days 4659 4474  
Cooling Degree Days 0 0  
Month to date cooling degree days 0 0  
Year to date cooling degree days 0 0  
Moisture  
Dew Point -2 °F    
Average Humidity 84    
Maximum Humidity 95    
Minimum Humidity 73    
Precipitation  
Precipitation T in 0.03 in 0.66 in (1969)
Month to date precipitation 0.01 0.05  
Year to date precipitation 0.95 0.92  
Snow  
Snow T in 0.10 in - ()
Month to date snowfall 0.3 0.3  
Since 1 July snowfall 25.5 24.3  
Snow Depth T in    
Sea Level Pressure  
Sea Level Pressure 30.41 in    
Wind  
Wind Speed 7 mph (East)    
Max Wind Speed 14 mph    
Max Gust Speed 17 mph    
Visibility 9 miles    
Events      
T = Trace of Precipitation, MM = Missing Value Source: NWS Daily Summary

Daily Weather History Graph

Daily Weather History Graph

Search for Another Location

Airport or City:

Trip Planner

Search our weather history database for the weather conditions in past years. The results will help you decide how hot, cold, wet, or windy it might be!

Date:

Astronomy

Mar. 02, 2014 Rise Set
Actual Time 6:18 AM MST 5:40 PM MST
Civil Twilight 5:51 AM MST 6:07 PM MST
Nautical Twilight 5:20 AM MST 6:38 PM MST
Astronomical Twilight 4:49 AM MST 7:09 PM MST
Moon 6:51 AM MST (3/2) 7:37 PM MST (3/2)
Length of Visible Light 12h 16m
Length of Day
11h 22m
Waxing Crescent, 3% of the Moon is Illuminated
Mar 2
Waxing Crescent
Mar 8
First Quarter
Mar 16
Full
Mar 23
Last Quarter
Mar 30
New

Hourly Weather History & Observations

Time (MST) Temp. Windchill Dew Point Humidity Pressure Visibility Wind Dir Wind Speed Gust Speed Precip Events Conditions
12:53 AM 1.0 °F -14.0 °F -2.9 °F 83% 30.45 in 10.0 mi NE 9.2 mph - N/A   Overcast
1:36 AM 1.0 °F -14.0 °F -2.9 °F 83% 30.24 in 6.0 mi ENE 9.2 mph - N/A   Overcast
1:53 AM 1.0 °F -11.7 °F -2.9 °F 83% 30.44 in 7.0 mi ENE 6.9 mph - N/A   Overcast
2:10 AM 1.0 °F -12.9 °F -4.0 °F 79% 30.24 in 10.0 mi ENE 8.1 mph - N/A   Overcast
2:53 AM 1.0 °F -14.0 °F -4.0 °F 79% 30.43 in 10.0 mi NE 9.2 mph - N/A   Overcast
3:38 AM -0.0 °F -17.1 °F -4.0 °F 83% 30.22 in 10.0 mi NE 11.5 mph - N/A   Overcast
3:53 AM -0.0 °F -17.1 °F -4.0 °F 83% 30.43 in 9.0 mi NE 11.5 mph - N/A   Overcast
4:41 AM -0.0 °F -16.3 °F -5.1 °F 79% 30.23 in 9.0 mi ENE 10.4 mph - N/A   Overcast
4:53 AM -0.0 °F -16.3 °F -5.1 °F 79% 30.46 in 10.0 mi ENE 10.4 mph - N/A   Overcast
5:35 AM -0.0 °F -14.2 °F -5.1 °F 79% 30.26 in 9.0 mi ENE 8.1 mph - N/A   Overcast
5:53 AM -0.0 °F -14.2 °F -5.1 °F 79% 30.51 in 9.0 mi ENE 8.1 mph - N/A   Overcast
6:42 AM -0.9 °F -16.4 °F -5.1 °F 83% 30.27 in 10.0 mi NE 9.2 mph - N/A   Overcast
6:53 AM -0.0 °F -14.2 °F -5.1 °F 79% 30.50 in 8.0 mi ENE 8.1 mph - N/A   Overcast
7:53 AM -0.0 °F -14.2 °F -5.1 °F 79% 30.51 in 7.0 mi NE 8.1 mph - N/A   Overcast
8:53 AM -0.0 °F -16.3 °F -4.0 °F 83% 30.51 in 6.0 mi NE 10.4 mph - N/A   Overcast
9:53 AM 1.0 °F -11.7 °F -6.0 °F 72% 30.56 in 5.0 mi ENE 6.9 mph - N/A   Haze
10:53 AM 1.9 °F -9.2 °F -5.1 °F 72% 30.55 in 10.0 mi NE 5.8 mph - N/A   Overcast
11:53 AM 1.9 °F -7.6 °F -2.9 °F 80% 30.52 in 10.0 mi NE 4.6 mph - N/A   Overcast
12:53 PM 3.9 °F -5.3 °F -2.0 °F 76% 30.50 in 7.0 mi East 4.6 mph - N/A   Overcast
1:19 PM 5.0 °F -4.1 °F -0.9 °F 76% 30.25 in 10.0 mi East 4.6 mph - N/A   Mostly Cloudy
1:53 PM 6.1 °F -0.9 °F -0.0 °F 76% 30.46 in 10.0 mi ENE 3.5 mph - N/A   Clear
2:21 PM 7.0 °F 0.1 °F -0.0 °F 73% 30.25 in 7.0 mi NE 3.5 mph - N/A   Mostly Cloudy
2:53 PM 7.0 °F - 1.0 °F 77% 30.46 in 9.0 mi Calm Calm - N/A   Mostly Cloudy
3:04 PM 7.0 °F - 1.0 °F 77% 30.23 in 10.0 mi Calm Calm - N/A   Scattered Clouds
3:35 PM 8.1 °F - 1.0 °F 73% 30.24 in 9.0 mi Calm Calm - N/A   Scattered Clouds
3:46 PM 8.1 °F - 1.9 °F 76% 30.24 in 9.0 mi Calm Calm - N/A   Mostly Cloudy
3:53 PM 8.1 °F -0.5 °F 1.9 °F 76% 30.46 in 10.0 mi South 4.6 mph - N/A   Scattered Clouds
4:53 PM 8.1 °F 1.4 °F 1.0 °F 73% 30.47 in 10.0 mi SE 3.5 mph - N/A   Scattered Clouds
5:08 PM 7.0 °F -3.3 °F 1.0 °F 77% 30.25 in 10.0 mi ESE 5.8 mph - N/A   Scattered Clouds
5:13 PM 7.0 °F -1.7 °F -0.0 °F 73% 30.25 in 9.0 mi East 4.6 mph - N/A   Mostly Cloudy
5:22 PM 7.0 °F -4.5 °F 1.0 °F 77% 30.26 in 8.0 mi East 6.9 mph - N/A   Mostly Cloudy
5:53 PM 6.1 °F -0.9 °F 1.0 °F 80% 30.48 in 10.0 mi ESE 3.5 mph - N/A   Mostly Cloudy
6:09 PM 5.0 °F -5.6 °F -0.0 °F 80% 30.26 in 10.0 mi ESE 5.8 mph - N/A   Partly Cloudy
6:53 PM 3.9 °F -8.2 °F -0.0 °F 84% 30.50 in 10.0 mi SE 6.9 mph - N/A   Clear
7:53 PM 3.0 °F -10.5 °F -0.9 °F 84% 30.51 in 10.0 mi SSE 8.1 mph - N/A   Clear
8:53 PM 3.0 °F -10.5 °F -0.9 °F 84% 30.53 in 10.0 mi South 8.1 mph - N/A   Clear
9:53 PM 1.9 °F -11.8 °F -0.9 °F 88% 30.54 in 10.0 mi South 8.1 mph - N/A   Clear
10:53 PM 1.9 °F -10.6 °F -0.9 °F 88% 30.54 in 10.0 mi South 6.9 mph - N/A   Clear
11:53 PM 1.9 °F -12.9 °F -2.0 °F 83% 30.51 in 10.0 mi South 9.2 mph - N/A   Clear